Grant County, OR

2:51 PM PDT on May 29, 2017 (GMT -0700)
Grant County Regional

Weather History for KGCD - January, 2014

Change the Weather History Date:

Monday, January 20, 2014

  Actual Average (KBNO) Record (KBNO)
Temperature  
Mean Temperature 42 °F -  
Max Temperature 55 °F 33 °F 51 °F (1981)
Min Temperature 29 °F 16 °F -13 °F (1949)
Degree Days  
Heating Degree Days 23    
Moisture  
Dew Point 26 °F    
Average Humidity 60    
Maximum Humidity 77    
Minimum Humidity 37    
Precipitation  
Precipitation 0.00 in - - ()
Sea Level Pressure  
Sea Level Pressure 30.34 in    
Wind  
Wind Speed 7 mph (ESE)    
Max Wind Speed 13 mph    
Max Gust Speed -    
Visibility 10 miles    
Events      
Averages and records for this station are not official NWS values.
T = Trace of Precipitation, MM = Missing Value Source: NWS Daily Summary

Daily Weather History Graph

Daily Weather History Graph

Search for Another Location

Airport or City:

Trip Planner

Search our weather history database for the weather conditions in past years. The results will help you decide how hot, cold, wet, or windy it might be!

Date:

Astronomy

Jan. 20, 2014 Rise Set
Actual Time 7:25 AM PST 4:49 PM PST
Civil Twilight 6:53 AM PST 5:20 PM PST
Nautical Twilight 6:17 AM PST 5:56 PM PST
Astronomical Twilight 5:43 AM PST 6:31 PM PST
Moon 9:41 PM PST (1/20) 9:16 AM PST (1/20)
Length of Visible Light 10h 27m
Length of Day
9h 23m
Waning Gibbous, 82% of the Moon is Illuminated
Jan 20
Waning Gibbous
Jan 23
Last Quarter
Jan 30
New
Feb 6
First Quarter
Feb 14
Full

Hourly Weather History & Observations

Time (PST) Temp. Windchill Dew Point Humidity Pressure Visibility Wind Dir Wind Speed Gust Speed Precip Events Conditions
12:15 AM 34.9 °F 28.3 °F 22.8 °F 61% 30.28 in 10.0 mi ESE 8.1 mph - N/A   Clear
12:35 AM 33.1 °F 26.1 °F 22.8 °F 66% 30.28 in 10.0 mi ESE 8.1 mph - N/A   Clear
12:55 AM 32.9 °F 26.7 °F 23.0 °F 67% 30.28 in 10.0 mi ESE 6.9 mph - N/A   Clear
1:15 AM 33.8 °F 25.3 °F 23.2 °F 65% 30.29 in 10.0 mi SE 11.5 mph - N/A   Clear
1:35 AM 34.2 °F 27.5 °F 23.0 °F 64% 30.28 in 10.0 mi SE 8.1 mph - N/A   Clear
1:55 AM 33.8 °F 27.7 °F 22.8 °F 64% 30.29 in 10.0 mi SE 6.9 mph - N/A   Clear
2:15 AM 34.2 °F 26.8 °F 23.0 °F 64% 30.30 in 10.0 mi SE 9.2 mph - N/A   Clear
2:35 AM 32.7 °F 25.0 °F 23.2 °F 68% 30.30 in 10.0 mi SE 9.2 mph - N/A   Clear
2:55 AM 33.6 °F 27.5 °F 23.0 °F 65% 30.30 in 10.0 mi SE 6.9 mph - N/A   Clear
3:15 AM 32.5 °F 25.5 °F 23.0 °F 68% 30.31 in 10.0 mi ESE 8.1 mph - N/A   Clear
3:35 AM 32.2 °F 26.7 °F 23.0 °F 69% 30.31 in 10.0 mi SE 5.8 mph - N/A   Clear
3:55 AM 32.0 °F 26.4 °F 23.0 °F 69% 30.31 in 10.0 mi ESE 5.8 mph - N/A   Clear
4:15 AM 31.6 °F 24.4 °F 23.0 °F 70% 30.32 in 10.0 mi SE 8.1 mph - N/A   Clear
4:35 AM 31.5 °F 22.9 °F 23.4 °F 72% 30.31 in 10.0 mi ESE 10.4 mph - N/A   Clear
4:55 AM 30.9 °F 22.2 °F 23.2 °F 73% 30.32 in 10.0 mi ESE 10.4 mph - N/A   Clear
5:15 AM 31.8 °F 22.3 °F 23.4 °F 71% 30.32 in 10.0 mi ESE 12.7 mph - N/A   Clear
5:35 AM 31.5 °F 22.9 °F 23.5 °F 73% 30.32 in 10.0 mi ESE 10.4 mph - N/A   Clear
5:55 AM 30.9 °F 23.5 °F 23.5 °F 74% 30.32 in 10.0 mi SE 8.1 mph - N/A   Clear
6:15 AM 31.8 °F 24.6 °F 23.7 °F 72% 30.32 in 10.0 mi SE 8.1 mph - N/A   Clear
6:35 AM 32.0 °F 24.8 °F 24.3 °F 73% 30.33 in 10.0 mi SE 8.1 mph - N/A   Clear
6:55 AM 31.5 °F 24.9 °F 23.9 °F 74% 30.34 in 10.0 mi ESE 6.9 mph - N/A   Clear
7:15 AM 31.1 °F 24.5 °F 23.9 °F 75% 30.34 in 10.0 mi ESE 6.9 mph - N/A   Clear
7:35 AM 30.7 °F 26.0 °F 23.9 °F 76% 30.34 in 10.0 mi ESE 4.6 mph - N/A   Clear
7:55 AM 29.8 °F - 23.4 °F 77% 30.35 in 10.0 mi Calm Calm - N/A   Clear
8:15 AM 30.7 °F - 23.9 °F 76% 30.36 in 10.0 mi Calm Calm - N/A   Clear
8:35 AM 33.1 °F 27.7 °F 25.3 °F 73% 30.36 in 10.0 mi SE 5.8 mph - N/A   Clear
8:55 AM 35.2 °F 31.2 °F 26.1 °F 69% 30.37 in 10.0 mi ESE 4.6 mph - N/A   Clear
9:15 AM 36.9 °F 34.3 °F 26.4 °F 66% 30.38 in 10.0 mi ESE 3.5 mph - N/A   Clear
9:35 AM 37.6 °F 35.1 °F 26.2 °F 64% 30.39 in 10.0 mi East 3.5 mph - N/A   Clear
9:55 AM 38.3 °F - 26.4 °F 62% 30.39 in 10.0 mi Calm Calm - N/A   Clear
10:15 AM 38.7 °F - 26.6 °F 62% 30.40 in 10.0 mi Calm Calm - N/A   Clear
10:35 AM 39.2 °F - 26.8 °F 61% 30.40 in 10.0 mi Calm Calm - N/A   Clear
10:55 AM 40.6 °F - 27.3 °F 59% 30.39 in 10.0 mi Calm Calm - N/A   Clear
11:15 AM 43.0 °F - 28.2 °F 56% 30.39 in 10.0 mi Calm Calm - N/A   Clear
11:35 AM 43.7 °F - 28.2 °F 54% 30.38 in 10.0 mi Calm Calm - N/A   Clear
11:55 AM 45.3 °F - 28.9 °F 53% 30.37 in 10.0 mi Calm Calm - N/A   Clear
12:15 PM 46.8 °F - 29.3 °F 51% 30.36 in 10.0 mi Calm Calm - N/A   Clear
12:35 PM 48.4 °F - 29.5 °F 48% 30.35 in 10.0 mi Calm Calm - N/A   Clear
12:55 PM 49.5 °F - 29.7 °F 47% 30.34 in 10.0 mi East 3.5 mph - N/A   Clear
1:15 PM 50.7 °F - 29.7 °F 44% 30.33 in 10.0 mi East 3.5 mph - N/A   Clear
1:35 PM 51.8 °F - 29.8 °F 43% 30.32 in 10.0 mi ENE 4.6 mph - N/A   Clear
1:55 PM 53.4 °F - 30.2 °F 41% 30.32 in 10.0 mi ESE 4.6 mph - N/A   Clear
2:15 PM 54.3 °F - 29.8 °F 39% 30.32 in 10.0 mi East 5.8 mph - N/A   Clear
2:35 PM 54.9 °F - 30.0 °F 39% 30.33 in 10.0 mi East 5.8 mph - N/A   Clear
2:55 PM 55.2 °F - 30.0 °F 38% 30.33 in 10.0 mi East 4.6 mph - N/A   Clear
3:15 PM 55.4 °F - 30.0 °F 38% 30.33 in 10.0 mi East 4.6 mph - N/A   Clear
3:35 PM 55.4 °F - 29.8 °F 38% 30.33 in 10.0 mi ENE 4.6 mph - N/A   Clear
3:55 PM 54.5 °F - 29.7 °F 39% 30.33 in 10.0 mi East 4.6 mph - N/A   Clear
4:15 PM 53.2 °F - 29.5 °F 40% 30.34 in 10.0 mi South 4.6 mph - N/A   Clear
4:35 PM 53.2 °F - 28.2 °F 38% 30.34 in 10.0 mi South 3.5 mph - N/A   Clear
4:55 PM 51.8 °F - 26.4 °F 37% 30.34 in 10.0 mi South 10.4 mph - N/A   Clear
5:15 PM 49.5 °F - 25.3 °F 39% 30.34 in 10.0 mi South 5.8 mph - N/A   Clear
5:35 PM 48.4 °F - 26.4 °F 42% 30.34 in 10.0 mi ESE 4.6 mph - N/A   Clear
5:55 PM 46.6 °F - 27.7 °F 48% 30.35 in 10.0 mi ESE 6.9 mph - N/A   Clear
6:15 PM 45.0 °F 41.2 °F 29.5 °F 55% 30.36 in 10.0 mi East 6.9 mph - N/A   Clear
6:35 PM 45.1 °F 40.8 °F 29.5 °F 54% 30.36 in 10.0 mi ESE 8.1 mph - N/A   Clear
6:55 PM 45.7 °F 42.0 °F 27.1 °F 48% 30.37 in 10.0 mi ESE 6.9 mph - N/A   Clear
7:15 PM 44.6 °F 40.2 °F 27.1 °F 50% 30.37 in 10.0 mi SE 8.1 mph - N/A   Clear
7:35 PM 43.7 °F 41.1 °F 26.4 °F 51% 30.37 in 10.0 mi ESE 4.6 mph - N/A   Clear
7:55 PM 43.9 °F 42.3 °F 26.4 °F 50% 30.37 in 10.0 mi ESE 3.5 mph - N/A   Clear
8:15 PM 40.3 °F 37.1 °F 27.5 °F 60% 30.38 in 10.0 mi East 4.6 mph - N/A   Clear
8:35 PM 40.8 °F 37.8 °F 27.7 °F 60% 30.38 in 10.0 mi ESE 4.6 mph - N/A   Clear
8:55 PM 41.7 °F 38.0 °F 27.1 °F 56% 30.38 in 10.0 mi SE 5.8 mph - N/A   Clear
9:15 PM 38.1 °F 33.7 °F 28.0 °F 67% 30.38 in 10.0 mi ESE 5.8 mph - N/A   Clear
9:35 PM 36.7 °F 31.2 °F 28.2 °F 71% 30.38 in 10.0 mi ESE 6.9 mph - N/A   Clear
9:55 PM 37.2 °F 30.6 °F 28.4 °F 70% 30.38 in 10.0 mi East 9.2 mph - N/A   Clear
10:15 PM 36.7 °F 29.9 °F 28.2 °F 71% 30.38 in 10.0 mi East 9.2 mph - N/A   Clear
10:35 PM 36.1 °F 29.3 °F 28.2 °F 73% 30.38 in 10.0 mi East 9.2 mph - N/A   Clear
10:55 PM 36.1 °F 29.3 °F 27.9 °F 72% 30.38 in 10.0 mi East 9.2 mph - N/A   Clear
11:15 PM 35.6 °F 28.0 °F 27.7 °F 73% 30.38 in 10.0 mi East 10.4 mph - N/A   Clear
11:35 PM 36.0 °F 28.5 °F 27.5 °F 71% 30.38 in 10.0 mi East 10.4 mph - N/A   Clear
11:55 PM 36.1 °F 29.9 °F 27.3 °F 70% 30.38 in 10.0 mi East 8.1 mph - N/A   Clear